Weather in Madang

Papua New Guinea     5°13′46″S   145°47′05″E
temp.,
°C
wind,
m/s
gust,
m/s
humid.,
%
clouds,
%
prec.,
mm/h
press.,
hPa
HPBL,
m
8 may, sat
sat801:00+24sse029459 2.4 1008155
04:00+24wsw119662 5.3 1007107
07:00+24w119520 2.3 1009106
10:00+29nne127795 3.1 1009583
13:00+31ne326464 0.1 10051182
16:00+30ene347031 0.2 1004964
19:00+27ne2484100 0.1 1006291
22:00+26e259181 5.3 1008277
9 may, sun
sun901:00+25s1294100 5.5 1007119
04:00+24w129599 5.9 100666
07:00+24w229456 0.0 100783
10:00+31wnw126535 0.2 1008883
13:00+32ene325999 0.0 10051228
16:00+30ne347256 0.3 1003691
19:00+26nne2490100 4.9 1006137
22:00+25nw1291100 8.3 1008144
10 may, mon
mon1001:00+24w2395100 1.9 100787
04:00+24w2494100 2.4 1006115
07:00+24w2494100 0.2 1008148
10:00+28w3580100 0.4 1009560
13:00+30n236541 0.3 10061107
16:00+27nne249088 2.3 1005215
19:00+25nnw1292100 3.8 100882
22:00+24w229588 8.8 101070
11 may, tue
tue1101:00+23w2396100 2.9 1008111
04:00+23w239592 4.2 1007118
07:00+24w239491 0.7 1009123
10:00+24ne1195100 1.9 1010111
13:00+24ene1295100 0.6 1008242
16:00+24ese1294100 1.5 1007200
19:00+24se1293100 1.2 1009203
22:00+24e0194100 2.2 1011132
12 may, wed
wed1201:00+23wsw0097100 4.4 100997
04:00+23wnw1197100 6.3 100951
07:00+23w1197100 2.1 101177
10:00+24s0197100 4.0 1012144
13:00+24sw1195100 1.5 1009237
16:00+24wnw1294100 1.8 1008136
19:00+24wsw1192100 0.3 100980
22:00+23w1293100 0.3 101079